AirNav   ProFlight Series 2 Aviation Headset
 
 1053 users online  

51PN Helistop Ridc Industrial Park Heliport
Blawnox, Pennsylvania, USA

GOING TO BLAWNOX?


FAA INFORMATION EFFECTIVE 18 JUNE 2020

Location

FAA Identifier: 51PN
Lat/Long: 40-29-57.2460N 079-51-55.1790W
40-29.954100N 079-51.919650W
40.4992350,-79.8653275
(estimated)
Elevation: 986 ft. / 300.5 m (surveyed)
Variation: 08W (1985)
From city: 1 mile NW of BLAWNOX, PA
Time zone: UTC -4 (UTC -5 during Standard Time)
Zip code: 15238

Heliport Operations

Heliport use: Private use. Permission required prior to landing
Activation date: 09/1980
Control tower: no
ARTCC: CLEVELAND CENTER
FSS: ALTOONA FLIGHT SERVICE STATION
Attendance: UNATNDD
Wind indicator: yes
Segmented circle: no

Heliport Communications

WX AWOS-A at 42PN (7 nm W): PHONE 412-442-2213
WX ASOS at AGC (9 nm S): 120.55 (412-466-8968)
WX ASOS at PIT (17 nm W): PHONE 412-472-0145
WX AWOS-3PT at BTP (17 nm N): 121.450 (724-586-6434)
WX AWOS-3 at FWQ (17 nm S): 118.475 (724-379-5815)

Nearby radio navigation aids

VOR radial/distance  VOR name  Freq  Var
AGCr040/15.5ALLEGHENY VOR/DME110.0009W
EWCr149/25.1ELLWOOD CITY VOR/DME115.8008W
HLGr073/35.2WHEELING VOR/DME112.2007W
IHDr330/39.1INDIAN HEAD VORTAC108.2006W

Heliport Services

Runway Information

Helipad H1

Dimensions: 60 x 60 ft. / 18 x 18 m
Surface: asphalt/concrete
Traffic pattern: leftleft

Heliport Ownership and Management from official FAA records

Ownership: Privately-owned
Owner: RIDC OF SW PA
SUITE 1220 - FRICK BLDG
PITTSBURGH, PA 15219
Phone 412-471-3939
Manager: LEON R. GEVAUDAN
SUITE 1220 - FRICK BLDG
PITTSBURGH, PA 15219
Phone 412-471-3939

Additional Remarks

FOR CD CTC PITTSBURGH APCH AT 412-472-5591

Instrument Procedures

There are no published instrument procedures at 51PN.

Some nearby airports with instrument procedures:

KAGC - Allegheny County Airport (9 nm S)
G05 - Finleyville Airpark (17 nm SW)
KPIT - Pittsburgh International Airport (17 nm W)
KBTP - Pittsburgh/Butler Regional Airport (17 nm N)
KFWQ - Rostraver Airport (17 nm S)
6P7 - McVille Airport (19 nm NE)
 
Loc | Ops | Rwys | IFR | FBO | Links
Com | Nav | Svcs | Stats | Notes
Area around 51PN (Helistop Ridc Industrial Park Heliport)
 
Road maps at: MapQuest Bing Google
 
Aerial photo
No photo
 
Sectional chart

 
Airport distance calculator
Flying to Helistop Ridc Industrial Park Heliport? Find the distance to fly.

From to 51PN

Sunrise and sunset
Times for 12-Jul-2020
 Local
(UTC-4)
 Zulu
(UTC)
Morning civil twilight05:2909:29
Sunrise06:0110:01
Sunset20:4900:49
Evening civil twilight21:2101:21

Current date and time
Zulu (UTC)  12-Jul-2020 18:16:41
Local (UTC-4)  12-Jul-2020 14:16:41
 
METAR
KAGC 
9nm S 
121753Z 26003KT 10SM SCT038 26/18 A2979 RMK AO2 LTG DSNT SE SLP082 60000 T02560183 10267 20189 58008
KBTP 
17nm N 
121756Z AUTO 26006KT 10SM FEW050 27/16 A2979 RMK AO2 LTG DSNT NW SLP086 T02670161 10283 20200 58006
KP53 
17nm S 
121756Z AUTO 33010KT 18/13 A2992 RMK AO1 SLP132 T01780133 10178 20156 58005
KPIT 
18nm W 
121751Z 27008KT 10SM SCT045 OVC085 26/17 A2979 RMK AO2 LTG DSNT SE SLP086 BINOVC T02560172 10267 20200 56006
TAF
KAGC 
9nm S 
121723Z 1218/1318 23006KT P6SM BKN045 FM122000 25005KT P6SM VCTS BKN040CB FM130000 32003KT P6SM BKN040 FM131700 33008KT P6SM SCT050
KPIT 
18nm W 
121723Z 1218/1324 24006KT P6SM BKN045 FM122000 25005KT P6SM VCTS BKN040CB FM130000 32003KT P6SM BKN040 FM131500 32005KT P6SM SCT050
NOTAMs
Click for the latest NOTAMs
NOTAMs are issued by the DoD/FAA and will open in a separate window not controlled by AirNav.

 

 
 

Would you like to see your business listed on this page?

 If your business provides an interesting product or service to pilots, flight crews, aircraft, or users of the Helistop Ridc Industrial Park Heliport, you should consider listing it here.  To start the listing process, click on the button below
 
Add a business
 

Other Pages about Helistop Ridc Industrial Park Heliport

Update a link
 
Copyright © AirNav, LLC. All rights reserved. Privacy Policy  Contact